Pagina principale
METAR-TAF:

METAR-TAF

Aeroporti :

Aeroporto di Albenga

Albenga, Italia

latitudine: 44-03N, longitudine: 008-07E, altezza: 45 m

Osservazione

Il bollettino è stato emesso 25 minuti fa, alle 09:50 UTC
Vento 7 kt da ovest/nord-ovest
Temperature 9°C
Umidità 71%
Pressione 1020 hPa
Visibilità 10 km o più
Nuvoloso ad un'altezza di 4500 ft

METAR: LIMG 160950Z 29007KT 9999 BKN045 09/04 Q1020

Ora: 11:15 (10:15 UTC)


TAF: mancante

Osservazioni e previsioni meteorologiche di più di 4000 aeroporti (messaggi METAR e TAF).

Le stazioni disponibili sono rappresentate dai dischi gialli e rossi sulla carta.

Puntare il mouse per vedere il nome della stazione.

Clicca sopra per visualizzare le osservazioni e previsioni meteorologiche.

Per cambiare la mappa : fare clic sui pulsanti verdi con una croce nera per ingrandire, il pulsante verde con un trattino per diminuire, o sulla freccia verde per le mappe adiacenti.


METAR-TAF: